Other Public Products
Issued by NWS Grand Forks, ND

Home | Current Version | Previous Version | Graphics & Text | Print | Product List | Glossary On
Versions: 1 2 3 4 5 6 7 8 9 10 11 12 13 14 15 16 17 18 19 20 21 22 23 24 25 26 27 28 29 30 31 32 33 34 35 36 37 38 39 40 41 42 43 44 45 46 47 48 49 50
453
FPUS83 KFGF 252231
OPUFGF
PRAIRIE TO PINES WEATHER ROUNDUP
NATIONAL WEATHER SERVICE EASTERN NORTH DAKOTA/GRAND FORKS ND
500 PM CDT TUE APR 25 2017

 **SATELLITE DATA USED TO AUGMENT SKY COVER AT AUTOMATED STATIONS**
 *****  WEATHER ACROSS EASTERN NORTH DAKOTA  *****

CITY           SKY/WX    TMP DP  RH WIND       PRES   REMARKS
GRAND FORKS    CLOUDY    38  29  70 N22G31    29.84R
GRAND FORKS AF CLOUDY    35  27  73 NE18G29   29.85R WCI  24
GRAND CITY NWS NOT AVBL
BUXTON           N/A     36  31  83 N21         N/A
DEVILS LAKE    CLOUDY    34  26  72 NE21G26   29.88S WCI  22
FARGO          CLOUDY    39  31  72 N25G32    29.76R
WAHPETON ARPT  CLOUDY    37  32  81 N18G28    29.72R
$$

 *****  WEATHER ACROSS CENTRAL AND WESTERN NORTH DAKOTA  *****

CITY           SKY/WX    TMP DP  RH WIND       PRES   REMARKS
JAMESTOWN      CLOUDY    32  27  81 N22       29.83R WCI  19
BISMARCK       CLOUDY    35  26  69 N15G21    29.92R
MINOT          CLOUDY    43  26  51 N17       29.91S
MINOT AFB      CLOUDY    42  24  50 NE18      29.91S
GARRISON         N/A     38  26  62 N10G20    29.90S
WILLISTON      FAIR      42  24  49 NE12      29.96F
DICKINSON      CLOUDY    30  23  75 N14       29.89S WCI  19
HETTINGER      CLOUDY    29  24  82 N15       29.89R WCI  18
$$

 *****  OTHER OBSERVATIONS NORTHEAST NORTH DAKOTA  *****

CITY           SKY/WX    TMP DP  RH WIND       PRES   REMARKS
WALHALLA       NOT AVBL
LANGDON        CLOUDY    37  28  70 NE20G32   29.89R
CAVALIER       CLOUDY    36  27  69 NE15G22   29.90S
GRAFTON        CLOUDY    34  28  80 N20       29.90R WCI  22
CANDO          NOT AVBL
FORT TOTTEN      N/A     33  28  80 NE8       29.95S
ROLLA          CLOUDY    37  25  60 NE22G30   29.91R
RUGBY          NOT AVBL
 ***** THE ABOVE OBSERVATIONS ARE NON NWS ARE NOT QUALITY
        CONTROLLED AND MAY MIS-REPORT RAIN FOR SNOW...
$$

 *****  OTHER OBSERVATIONS SOUTHEAST NORTH DAKOTA *****

CITY           SKY/WX    TMP DP  RH WIND       PRES   REMARKS
COOPERSTOWN    CLOUDY    32  28  86 N22       29.85R WCI  19
VALLEY CITY    FLURRIES  32  30  93 N24G31    29.82S WCI  19
OAKES          NOT AVBL
GWINNER        CLOUDY    36  30  80 MISG      29.75S
SHEYENNE NWR     N/A     36  29  76 N14       29.95S
BUFFALO          N/A     34  27  75 S16G29      N/A  WCI  23
WYNDMERE         N/A     37  32  81 N22         N/A
 ***** THE ABOVE OBSERVATIONS ARE NON NWS ARE NOT QUALITY
       CONTROLLED AND MAY MIS-REPORT RAIN FOR SNOW...
$$

  *****  WEATHER ACROSS NORTHERN MINNESOTA  *****

CITY           SKY/WX    TMP DP  RH WIND       PRES   REMARKS
FLAG ISLAND    CLOUDY    30  25  80 NE22G31   29.89S WCI  17
WARROAD        CLOUDY    32  27  80 NE16G26   29.88S WCI  21
ROSEAU         CLOUDY    34  28  80 NE20      29.87S WCI  22
HALLOCK        CLOUDY    36  27  69 NE15      29.88F
THF RVR FALLS  CLOUDY    34  27  75 NE25G31   29.81R WCI  21
HALSTAD          N/A     36  30  78 N25         N/A
FOSSTON        CLOUDY    34  32  93 N17G24    29.77R WCI  23
BAUDETTE       CLOUDY    32  25  75 N17G28    29.83S WCI  21
WASKISH        CLOUDY    36  28  75 NE16G22   29.80R
CROOKSTON      CLOUDY    37  28  70 NE21      29.83R
$$
  *****  WEATHER ACROSS CENTRAL AND WEST MINNESOTA  *****

CITY           SKY/WX    TMP DP  RH WIND       PRES   REMARKS
BEMIDJI        CLOUDY    35  31  85 N13G21    29.75R
PARK RAPIDS    CLOUDY    38  31  76 N17G23    29.69R
WADENA         CLOUDY    39  36  87 N16G22    29.66S
DETROIT LAKES  CLOUDY    37  34  87 N15G22    29.72R
MOORHEAD       CLOUDY    37  30  75 N22G30    29.76R
FERGUS FALLS   CLOUDY    39  37  93 N14       29.68S
ELBOW LAKE     CLOUDY    42  37  82 NE16G24   29.67R
MORRIS MN      CLOUDY    45  37  76 N20       29.63S
STAPLES        CLOUDY    41  36  81 N14G22    29.65R
WHEATON        CLOUDY    37  34  87 NW21      29.72R
$$
  *****  WEATHER ELSEWHERE ACROSS MINNESOTA  *****

CITY           SKY/WX    TMP DP  RH WIND       PRES   REMARKS
DULUTH         CLOUDY    50  38  63 E15       29.62R
INTRNTL FALLS  CLOUDY    31  25  78 NE16G26   29.82R WCI  20
ELY            CLOUDY    39  36  87 N7        29.72R
CLOQUET        DRIZZLE   46  36  66 E12G18    29.64R
BRAINERD       CLOUDY    47  38  71 N14G23    29.63R
HIBBING        CLOUDY    39  36  89 N16G24    29.68R
ALEXANDRIA     CLOUDY    45  38  76 N20       29.63S
SAINT CLOUD    CLOUDY    61  46  57 N8        29.54S
MINNEAPOLIS    LGT RAIN  53  49  86 NE6       29.54F FOG
$$

  *****  WEATHER ACROSS SOUTH DAKOTA  *****

CITY           SKY/WX    TMP DP  RH WIND       PRES   REMARKS
SIOUX FALLS    LGT RAIN  41  40  96 N17       29.61S
BROOKINGS      MIX PCPN  36  34  92 N18G28    29.63F
WATERTOWN      CLOUDY    35  31  85 N17       29.67R WCI  25
HURON          CLOUDY    37  31  78 N22G29    29.71F
SISSETON         N/A     37  32  82 N22G32    29.71R
ABERDEEN       CLOUDY    35  27  72 N21G29    29.76R WCI  24
MITCHELL       CLOUDY    38  33  82 N23       29.71R
PIERRE         FLURRIES  36  28  73 N22G30    29.77S
MOBRIDGE       CLOUDY    35  25  66 N20G28    29.81S WCI  24
RAPID CITY     LGT SNOW  28  25  88 N18       29.82S VSB 1   WCI  15
$$

  *****  SOME WEATHER IN NEARBY STATES *****

CITY           SKY/WX    TMP DP  RH WIND       PRES   REMARKS
GLASGOW MT     CLOUDY    43  25  49 E12       29.93F
GREAT FALLS MT FAIR      47  40  76 NE10      29.78F
CHEYENNE WY    FAIR      46  27  47 NW22G35   29.65R
SCOTTSBLUFF NE CLOUDY    42  34  73 N17       29.70R
OMAHA NE       LGT RAIN  48  43  82 N16       29.51S
DES MOINES IA  CLOUDY    72  48  42 SE8       29.41F
DAVENPORT IA   FAIR      79  40  24 SE20      29.46F
CHICAGO IL     CLOUDY    78  50  37 SE18G24   29.54F
EAU CLAIRE WI  RAIN      57  55  93 SW6       29.57R FOG
LA CROSSE WI   CLOUDY    62  55  77 N7        29.53F
$$

  *****  SOME NATIONAL WEATHER *****

CITY           SKY/WX    TMP DP  RH WIND       PRES   REMARKS
LA GUARDIA NY  LGT RAIN  54  51  90 NE25G37   29.93F FOG
RALEIGH NC     PTSUNNY   67  57  70 VRB5      29.64S
ATLANTA GA     FAIR      76  56  49 W12       29.73F
NEW ORLEANS LA FAIR      76  58  53 S14       29.75F
OKLAHOMA CITY  PTSUNNY   83  60  45 S16G24    29.36F
ALBUQUERQUE NM FAIR      57  44  62 NE6       29.64F
SALT LAKE CITY PTSUNNY   51  37  58 N9        29.87S
LOS ANGELES CA PTSUNNY   68  52  56 W23       29.88F
BOISE ID       PTSUNNY   55  31  39 W12       29.91F
SEATTLE WA     CLOUDY    55  41  59 SW10      29.90F
$$

*** WEATHER ACROSS MANITOBA...SASKATCHEWAN AND ONTARIO ***
                ***ONTARIO***

CITY           SKY/WX    TMP DP  RH WIND       PRES   REMARKS
GERALDTON      FLURRIES  23  21  93 NE10      29.92R WCI  12
THUNDER BAY    CLOUDY    34  28  80 N7G17     29.77R
SIOUX LOOKOUT  CLOUDY    27  19  74 NE9G22    29.94S WCI  17
TORONTO        CLOUDY    50  46  87 E12       29.91F
BIG TROUT LK   SUNNY     28   7  40 NE9G17    30.22R WCI  20
PICKLE LAKE    CLOUDY    25  18  74 NE12G23   30.05R WCI  14
DRYDEN         CLOUDY    27  21  80 NE18G31   29.90S WCI  13
KENORA         CLOUDY    28  23  80 NE16G26   29.91R WCI  17
$$
                *** MANITOBA***

CITY           SKY/WX    TMP DP  RH WIND       PRES   REMARKS
BRANDON        PTSUNNY   39  23  52 NE24      29.98S
DAUPHIN        SUNNY     39  12  33 NE21G26   30.09S
ISLAND LAKE    SUNNY     32   7  34 E3        30.21S
PILOT MOUND      N/A     39  25  56 NE20G26     N/A
THE PAS        MOSUNNY   34   0  23 E9G17     30.20F
THOMPSON       SUNNY     25  -6  26 E6        30.29S WCI  18
WINNIPEG       MOSUNNY   43  27  52 NE25G32   29.93S
LYNN LAKE      SUNNY     30   5  34 S5        30.22F
CHURCHILL      SUNNY     10   1  67 S10       30.41F WCI  -3
GILLAM         SUNNY     19  -2  38 VRB5      30.36F WCI  13
$$
                ***SASKATCHEWAN***

CITY           SKY/WX    TMP DP  RH WIND       PRES   REMARKS
ESTEVAN        PTSUNNY   39  23  52 NE13      29.97F
KINDERSLEY     CLOUDY    34  23  64 SE15G21   29.97S WCI  24
LLOYDMINSTER   FLURRIES  34  30  86 SE15G22   30.01S WCI  24
PRINCE ALBERT  PTSUNNY   39  16  38 S10       30.11S
REGINA         MOSUNNY   36  21  55 NE6       30.03S
YORKTON        SUNNY     39  19  45 NE14      30.05F



USA.gov is the U.S. government's official web portal to all federal, state and local government web resources and services.